24.04.2024;04:00;47
24.04.2024;03:00;54
24.04.2024;02:00;55
24.04.2024;01:00;51
24.04.2024;00:00;46
23.04.2024;23:00;46
23.04.2024;22:00;50
23.04.2024;21:00;52
23.04.2024;20:00;57
23.04.2024;19:00;54
23.04.2024;18:00;55
23.04.2024;17:00;47
23.04.2024;16:00;55
23.04.2024;15:00;47
23.04.2024;14:00;24
23.04.2024;13:00;37
23.04.2024;12:00;42
23.04.2024;11:00;26
23.04.2024;10:00;44
23.04.2024;09:00;46
23.04.2024;08:00;46
23.04.2024;07:00;53
23.04.2024;06:00;61
23.04.2024;05:00;66
23.04.2024;04:00;66
23.04.2024;03:00;71
23.04.2024;02:00;65
23.04.2024;01:00;60
23.04.2024;00:00;68
22.04.2024;23:00;72
22.04.2024;22:00;64
22.04.2024;21:00;52
22.04.2024;20:00;45
22.04.2024;19:00;71
22.04.2024;18:00;79
22.04.2024;17:00;75
22.04.2024;16:00;77
22.04.2024;15:00;73
22.04.2024;14:00;66
22.04.2024;13:00;48
22.04.2024;12:00;61
22.04.2024;11:00;58
22.04.2024;10:00;41
22.04.2024;09:00;52
22.04.2024;08:00;56
22.04.2024;07:00;67
22.04.2024;06:00;72
22.04.2024;05:00;75
